| time (UTC) | temp F | wind direction | speed MPH | gust MPH | rain 1hr in | rain 24hr in | rain mn in | humidity % | barometer mb |
| 20260503021706 | 50 | 95 | 0.0 | 9.0 | 0.00 | 0.19 | 0.36 | 100 | 1014.6 |
| 20260503021149 | 50 | 96 | 0.0 | 9.0 | 0.00 | 0.19 | 0.36 | 100 | 1014.9 |
| 20260503020638 | 50 | 95 | 0.0 | 9.0 | 0.00 | 0.19 | 0.36 | 100 | 1014.9 |
| 20260503020135 | 50 | 95 | 0.0 | 9.0 | 0.00 | 0.19 | 0.36 | 100 | 1014.6 |
| 20260503015631 | 50 | 94 | 0.0 | 9.0 | 0.00 | 0.19 | 0.36 | 100 | 1014.6 |
| 20260503015109 | 50 | 95 | 1.0 | 9.0 | 0.00 | 0.19 | 0.36 | 100 | 1014.6 |
| 20260503014548 | 50 | 96 | 0.0 | 9.0 | 0.00 | 0.19 | 0.36 | 100 | 1014.2 |
| 20260503014022 | 50 | 96 | 0.0 | 9.0 | 0.00 | 0.19 | 0.36 | 100 | 1014.2 |
| 20260503013505 | 50 | 95 | 0.0 | 9.0 | 0.00 | 0.19 | 0.36 | 100 | 1014.2 |
| 20260503012947 | 50 | 95 | 0.0 | 9.0 | 0.00 | 0.19 | 0.36 | 100 | 1014.2 |
| 20260503012432 | 51 | 95 | 0.0 | 9.0 | 0.00 | 0.19 | 0.36 | 100 | 1014.2 |
| 20260503011915 | 50 | 95 | 0.0 | 9.0 | 0.00 | 0.19 | 0.36 | 100 | 1013.9 |
| 20260503011342 | 50 | 95 | 0.0 | 9.0 | 0.00 | 0.19 | 0.36 | 100 | 1013.9 |
| 20260503010818 | 51 | 94 | 0.0 | 9.0 | 0.00 | 0.19 | 0.36 | 100 | 1013.9 |
| 20260503010253 | 51 | 96 | 0.0 | 9.0 | 0.00 | 0.19 | 0.36 | 100 | 1013.5 |
| 20260503005739 | 51 | 95 | 0.0 | 9.0 | 0.00 | 0.19 | 0.36 | 100 | 1013.5 |
| 20260503005225 | 51 | 94 | 0.0 | 9.0 | 0.00 | 0.19 | 0.36 | 100 | 1013.9 |
| 20260503004705 | 51 | 95 | 0.0 | 9.0 | 0.00 | 0.19 | 0.36 | 100 | 1013.2 |
| 20260503004149 | 52 | 95 | 0.0 | 9.0 | 0.00 | 0.19 | 0.36 | 100 | 1013.5 |
| 20260503003637 | 52 | 96 | 0.0 | 9.0 | 0.00 | 0.19 | 0.36 | 100 | 1013.2 |
| 20260503003120 | 52 | 95 | 0.0 | 9.0 | 0.00 | 0.19 | 0.36 | 100 | 1013.2 |
| 20260503002617 | 52 | 95 | 0.0 | 9.0 | 0.00 | 0.19 | 0.36 | 100 | 1013.2 |
| 20260503002057 | 52 | 95 | 0.0 | 9.0 | 0.00 | 0.19 | 0.36 | 100 | 1012.9 |
| 20260503001535 | 52 | 95 | 0.0 | 9.0 | 0.00 | 0.19 | 0.36 | 100 | 1012.9 |
| 20260503001008 | 52 | 95 | 0.0 | 9.0 | 0.00 | 0.19 | 0.36 | 100 | 1012.9 |
| 20260503000458 | 52 | 95 | 0.0 | 9.0 | 0.00 | 0.19 | 0.36 | 100 | 1012.9 |
| 20260502235941 | 52 | 95 | 0.0 | 9.0 | 0.00 | 0.19 | 0.36 | 100 | 1012.9 |
| 20260502235426 | 52 | 96 | 0.0 | 9.0 | 0.00 | 0.19 | 0.36 | 100 | 1012.9 |
| 20260502234910 | 52 | 95 | 0.0 | 9.0 | 0.00 | 0.19 | 0.36 | 100 | 1013.2 |
| 20260502234354 | 53 | 95 | 0.0 | 9.0 | 0.00 | 0.19 | 0.36 | 100 | 1012.5 |
| 20260502233837 | 52 | 95 | 0.0 | 9.0 | 0.00 | 0.19 | 0.36 | 100 | 1012.5 |
| 20260502233322 | 53 | 95 | 0.0 | 9.0 | 0.00 | 0.19 | 0.36 | 100 | 1012.5 |
| 20260502232808 | 53 | 95 | 0.0 | 9.0 | 0.00 | 0.19 | 0.36 | 100 | 1012.5 |
| 20260502232257 | 53 | 95 | 0.0 | 9.0 | 0.00 | 0.19 | 0.36 | 100 | 1012.2 |
| 20260502231736 | 53 | 94 | 0.0 | 9.0 | 0.00 | 0.19 | 0.36 | 100 | 1012.2 |
| 20260502231208 | 53 | 95 | 0.0 | 9.0 | 0.00 | 0.19 | 0.36 | 100 | 1012.5 |
| 20260502230654 | 53 | 95 | 0.0 | 9.0 | 0.00 | 0.19 | 0.36 | 100 | 1012.5 |
| 20260502230133 | 53 | 87 | 2.0 | 9.0 | 0.00 | 0.19 | 0.36 | 100 | 1012.5 |
| 20260502225613 | 53 | 87 | 0.0 | 9.0 | 0.00 | 0.19 | 0.36 | 100 | 1012.9 |
| 20260502225051 | 53 | 87 | 1.0 | 9.0 | 0.00 | 0.19 | 0.36 | 100 | 1012.9 |
| 20260502224549 | 53 | 87 | 0.0 | 9.0 | 0.00 | 0.19 | 0.36 | 100 | 1012.5 |
| 20260502224017 | 53 | 87 | 1.0 | 9.0 | 0.00 | 0.19 | 0.36 | 100 | 1012.5 |
| 20260502223501 | 53 | 86 | 2.0 | 9.0 | 0.00 | 0.19 | 0.36 | 100 | 1012.5 |
| 20260502222947 | 53 | 87 | 0.0 | 9.0 | 0.00 | 0.19 | 0.36 | 100 | 1012.2 |
| 20260502222429 | 53 | 87 | 0.0 | 9.0 | 0.00 | 0.19 | 0.36 | 100 | 1012.2 |
| 20260502221911 | 53 | 87 | 0.0 | 9.0 | 0.00 | 0.19 | 0.36 | 100 | 1012.5 |
| 20260502221337 | 53 | 87 | 0.0 | 9.0 | 0.00 | 0.19 | 0.36 | 100 | 1012.2 |
| 20260502220812 | 53 | 87 | 2.0 | 9.0 | 0.00 | 0.19 | 0.36 | 100 | 1012.5 |
| 20260502220242 | 53 | 87 | 0.0 | 9.0 | 0.00 | 0.19 | 0.36 | 100 | 1012.5 |
| 20260502215726 | 53 | 87 | 1.0 | 9.0 | 0.00 | 0.19 | 0.36 | 100 | 1012.5 |
| 20260502215207 | 53 | 87 | 2.0 | 9.0 | 0.00 | 0.19 | 0.36 | 100 | 1012.2 |
| 20260502214636 | 53 | 86 | 2.0 | 9.0 | 0.00 | 0.19 | 0.36 | 100 | 1011.9 |
| 20260502214107 | 53 | 85 | 0.0 | 9.0 | 0.00 | 0.19 | 0.36 | 100 | 1012.2 |
| 20260502213546 | 53 | 30 | 2.0 | 9.0 | 0.00 | 0.19 | 0.36 | 100 | 1012.2 |
| 20260502213033 | 53 | 31 | 2.0 | 9.0 | 0.00 | 0.19 | 0.36 | 100 | 1012.2 |
| 20260502212514 | 53 | 31 | 0.0 | 9.0 | 0.00 | 0.19 | 0.36 | 100 | 1012.2 |
| 20260502211951 | 53 | 8 | 1.0 | 9.0 | 0.00 | 0.19 | 0.36 | 100 | 1012.2 |
| 20260502211440 | 53 | 8 | 0.0 | 9.0 | 0.00 | 0.19 | 0.36 | 100 | 1012.9 |
| 20260502210914 | 53 | 7 | 0.0 | 9.0 | 0.00 | 0.19 | 0.36 | 100 | 1012.2 |
| 20260502210354 | 53 | 8 | 1.0 | 9.0 | 0.01 | 0.19 | 0.36 | 100 | 1012.5 |
| 20260502205834 | 53 | 21 | 0.0 | 9.0 | 0.01 | 0.19 | 0.36 | 100 | 1012.2 |
| 20260502205319 | 53 | 21 | 1.0 | 9.0 | 0.01 | 0.19 | 0.36 | 100 | 1012.2 |
| 20260502204759 | 53 | 20 | 2.0 | 9.0 | 0.00 | 0.18 | 0.36 | 100 | 1012.2 |
| 20260502204241 | 53 | 20 | 3.0 | 9.0 | 0.00 | 0.18 | 0.36 | 100 | 1011.9 |
| 20260502203738 | 53 | 20 | 2.0 | 9.0 | 0.00 | 0.18 | 0.36 | 100 | 1012.2 |
| 20260502203213 | 53 | 19 | 1.0 | 9.0 | 0.00 | 0.18 | 0.36 | 100 | 1012.2 |
| 20260502202711 | 53 | 14 | 2.0 | 9.0 | 0.00 | 0.18 | 0.36 | 100 | 1012.5 |
| 20260502202146 | 52 | 14 | 3.0 | 9.0 | 0.00 | 0.18 | 0.36 | 100 | 1012.5 |
| 20260502201629 | 53 | 15 | 1.0 | 9.0 | 0.00 | 0.18 | 0.36 | 100 | 1012.2 |
| 20260502201114 | 53 | 15 | 1.0 | 9.0 | 0.01 | 0.18 | 0.36 | 100 | 1012.5 |
| 20260502200552 | 53 | 46 | 0.0 | 9.0 | 0.00 | 0.18 | 0.35 | 100 | 1012.2 |
| 20260502200033 | 53 | 19 | 1.0 | 9.0 | 0.00 | 0.18 | 0.35 | 100 | 1012.9 |
| 20260502195514 | 53 | 19 | 1.0 | 9.0 | 0.01 | 0.18 | 0.35 | 100 | 1012.5 |
| 20260502194953 | 52 | 18 | 4.0 | 9.0 | 0.01 | 0.18 | 0.35 | 100 | 1012.5 |
| 20260502194436 | 52 | 21 | 4.0 | 9.0 | 0.01 | 0.18 | 0.35 | 100 | 1012.2 |
| 20260502193930 | 53 | 38 | 2.0 | 9.0 | 0.01 | 0.18 | 0.35 | 100 | 1012.5 |
| 20260502193405 | 53 | 38 | 0.0 | 9.0 | 0.01 | 0.18 | 0.35 | 100 | 1012.9 |
| 20260502192903 | 53 | 38 | 1.0 | 9.0 | 0.01 | 0.18 | 0.35 | 100 | 1012.2 |
| 20260502192353 | 52 | 38 | 1.0 | 9.0 | 0.01 | 0.18 | 0.35 | 100 | 1012.5 |
| 20260502191843 | 53 | 39 | 2.0 | 9.0 | 0.01 | 0.18 | 0.35 | 100 | 1012.9 |
| 20260502191325 | 52 | 38 | 1.0 | 9.0 | 0.00 | 0.17 | 0.35 | 100 | 1012.9 |
| 20260502190751 | 52 | 39 | 1.0 | 9.0 | 0.00 | 0.17 | 0.35 | 100 | 1012.5 |
| 20260502190220 | 52 | 39 | 1.0 | 9.0 | 0.00 | 0.17 | 0.35 | 100 | 1012.9 |
| 20260502185706 | 52 | 33 | 1.0 | 9.0 | 0.00 | 0.17 | 0.35 | 100 | 1012.9 |
| 20260502185154 | 52 | 38 | 2.0 | 9.0 | 0.00 | 0.17 | 0.35 | 100 | 1013.2 |
| 20260502184638 | 52 | 38 | 0.0 | 9.0 | 0.00 | 0.17 | 0.35 | 100 | 1013.2 |
| 20260502184125 | 52 | 38 | 1.0 | 9.0 | 0.00 | 0.17 | 0.35 | 100 | 1012.9 |
| 20260502183528 | 53 | 101 | 1.0 | 9.0 | 0.01 | 0.17 | 0.35 | 100 | 1012.9 |
| 20260502183019 | 53 | 52 | 3.0 | 9.0 | 0.01 | 0.17 | 0.35 | 100 | 1012.5 |
| 20260502182511 | 52 | 95 | 0.0 | 9.0 | 0.01 | 0.17 | 0.35 | 100 | 1012.9 |
| 20260502181957 | 52 | 94 | 8.0 | 9.0 | 0.01 | 0.17 | 0.35 | 100 | 1012.2 |
| 20260502181447 | 52 | 118 | 5.0 | 9.0 | 0.01 | 0.17 | 0.35 | 100 | 1012.9 |
| 20260502180938 | 52 | 74 | 1.0 | 9.0 | 0.01 | 0.17 | 0.35 | 100 | 1013.2 |
| 20260502180423 | 52 | 100 | 0.0 | 9.0 | 0.01 | 0.17 | 0.35 | 100 | 1013.2 |
| 20260502170155 | 52 | 18 | 1.0 | 8.0 | 0.02 | 0.16 | 0.34 | 100 | 1012.9 |
| 20260502164124 | 52 | 35 | 2.0 | 8.0 | 0.02 | 0.16 | 0.33 | 100 | 1013.5 |
| 20260502163557 | 52 | 64 | 2.0 | 8.0 | 0.02 | 0.15 | 0.33 | 100 | 1013.2 |
| 20260502163035 | 52 | 98 | 1.0 | 8.0 | 0.02 | 0.15 | 0.33 | 100 | 1013.9 |
| 20260502162534 | 52 | 104 | 4.0 | 8.0 | 0.02 | 0.15 | 0.33 | 100 | 1013.5 |
| 20260502162009 | 53 | 43 | 4.0 | 8.0 | 0.02 | 0.15 | 0.33 | 100 | 1013.9 |
| 20260502161452 | 53 | 105 | 3.0 | 6.0 | 0.02 | 0.15 | 0.33 | 100 | 1013.9 |
| 20260502160925 | 53 | 47 | 1.0 | 6.0 | 0.02 | 0.15 | 0.32 | 100 | 1013.9 |
| 20260502160400 | 53 | 38 | 2.0 | 6.0 | 0.02 | 0.15 | 0.32 | 100 | 1014.2 |
| 20260502152101 | 53 | 24 | 3.0 | 6.0 | 0.04 | 0.13 | 0.31 | 100 | 1013.5 |
| 20260502151537 | 53 | 15 | 1.0 | 6.0 | 0.05 | 0.13 | 0.31 | 100 | 1013.2 |
| 20260502151012 | 52 | 15 | 1.0 | 6.0 | 0.04 | 0.13 | 0.31 | 100 | 1013.2 |
| 20260502150505 | 53 | 10 | 3.0 | 6.0 | 0.04 | 0.13 | 0.30 | 100 | 1013.5 |
| 20260502140124 | 53 | 12 | 0.0 | 6.0 | 0.01 | 0.08 | 0.26 | 100 | 1013.5 |
| 20260502130347 | 52 | 13 | 1.0 | 6.0 | 0.02 | 0.08 | 0.25 | 100 | 1012.9 |
| 20260502123748 | 52 | 14 | 0.0 | 6.0 | 0.02 | 0.08 | 0.24 | 100 | 1012.9 |
| 20260502123226 | 52 | 14 | 0.0 | 6.0 | 0.02 | 0.08 | 0.24 | 100 | 1012.9 |
| 20260502122713 | 52 | 14 | 1.0 | 6.0 | 0.02 | 0.07 | 0.24 | 100 | 1012.9 |
| 20260502122202 | 52 | 14 | 3.0 | 6.0 | 0.02 | 0.07 | 0.24 | 100 | 1012.9 |
| 20260502121650 | 52 | 14 | 1.0 | 6.0 | 0.02 | 0.07 | 0.24 | 100 | 1012.5 |
| 20260502121137 | 52 | 14 | 0.0 | 6.0 | 0.02 | 0.07 | 0.23 | 100 | 1012.5 |
| 20260502120632 | 52 | 15 | 1.0 | 6.0 | 0.02 | 0.07 | 0.23 | 100 | 1012.5 |
| 20260502120110 | 52 | 14 | 0.0 | 6.0 | 0.01 | 0.07 | 0.23 | 100 | 1012.2 |
| 20260502115557 | 53 | 14 | 1.0 | 6.0 | 0.02 | 0.07 | 0.23 | 100 | 1012.9 |
| 20260502115045 | 53 | 15 | 0.0 | 6.0 | 0.02 | 0.07 | 0.23 | 100 | 1012.9 |
| 20260502114531 | 53 | 13 | 0.0 | 6.0 | 0.01 | 0.06 | 0.22 | 100 | 1012.5 |
| 20260502114025 | 53 | 12 | 2.0 | 6.0 | 0.02 | 0.06 | 0.22 | 100 | 1012.9 |
| 20260502113504 | 53 | 1 | 0.0 | 6.0 | 0.02 | 0.06 | 0.22 | 100 | 1012.9 |
| 20260502112956 | 53 | 353 | 4.0 | 6.0 | 0.02 | 0.06 | 0.22 | 100 | 1012.9 |
| 20260502112433 | 53 | 349 | 3.0 | 6.0 | 0.02 | 0.06 | 0.22 | 100 | 1012.5 |
| 20260502111921 | 53 | 357 | 1.0 | 6.0 | 0.02 | 0.06 | 0.22 | 100 | 1012.5 |
| 20260502111409 | 53 | 3 | 2.0 | 6.0 | 0.02 | 0.06 | 0.22 | 100 | 1012.9 |
| 20260502110855 | 53 | 359 | 3.0 | 6.0 | 0.02 | 0.06 | 0.22 | 100 | 1012.2 |
| 20260502110344 | 53 | 346 | 2.0 | 6.0 | 0.02 | 0.06 | 0.22 | 100 | 1012.9 |
| 20260502105832 | 53 | 346 | 1.0 | 6.0 | 0.03 | 0.06 | 0.22 | 100 | 1012.9 |
| 20260502105320 | 53 | 344 | 0.0 | 6.0 | 0.03 | 0.05 | 0.21 | 100 | 1012.5 |
| 20260502104808 | 53 | 344 | 4.0 | 6.0 | 0.03 | 0.05 | 0.21 | 100 | 1012.5 |
| 20260502104255 | 53 | 344 | 1.0 | 6.0 | 0.03 | 0.05 | 0.21 | 100 | 1012.9 |
| 20260502103750 | 53 | 344 | 2.0 | 6.0 | 0.03 | 0.05 | 0.21 | 100 | 1012.9 |
| 20260502103228 | 53 | 345 | 1.0 | 6.0 | 0.03 | 0.05 | 0.21 | 100 | 1012.9 |
| 20260502102715 | 53 | 342 | 1.0 | 5.0 | 0.03 | 0.04 | 0.20 | 100 | 1012.9 |
| 20260502102203 | 53 | 339 | 2.0 | 5.0 | 0.02 | 0.04 | 0.20 | 100 | 1012.9 |
| 20260502101650 | 53 | 341 | 5.0 | 5.0 | 0.02 | 0.04 | 0.20 | 100 | 1012.9 |
| 20260502101138 | 53 | 1 | 3.0 | 4.0 | 0.02 | 0.04 | 0.20 | 100 | 1012.9 |
| 20260502100625 | 53 | 1 | 0.0 | 4.0 | 0.02 | 0.03 | 0.19 | 100 | 1012.5 |
| 20260502100113 | 54 | 1 | 1.0 | 4.0 | 0.01 | 0.03 | 0.19 | 100 | 1012.9 |
| 20260502091416 | 54 | 103 | 0.0 | 3.0 | 0.00 | 0.02 | 0.18 | 100 | 1012.9 |
| 20260502090904 | 54 | 103 | 0.0 | 3.0 | 0.00 | 0.02 | 0.18 | 100 | 1012.9 |
| 20260502090352 | 54 | 103 | 0.0 | 3.0 | 0.00 | 0.02 | 0.18 | 100 | 1012.5 |
| 20260502071419 | 54 | 103 | 0.0 | 3.0 | 0.00 | 0.02 | 0.18 | 100 | 1012.2 |
| 20260502070907 | 53 | 104 | 0.0 | 3.0 | 0.00 | 0.02 | 0.18 | 100 | 1011.9 |
| 20260502070355 | 53 | 103 | 0.0 | 3.0 | 0.00 | 0.02 | 0.18 | 100 | 1012.2 |
| 20260502065844 | 53 | 103 | 0.0 | 3.0 | 0.00 | 0.02 | 0.18 | 100 | 1012.2 |
| 20260502065331 | 53 | 103 | 0.0 | 3.0 | 0.00 | 0.02 | 0.18 | 100 | 1011.9 |
| 20260502064819 | 54 | 103 | 0.0 | 3.0 | 0.00 | 0.02 | 0.18 | 100 | 1012.2 |
| 20260502064306 | 54 | 103 | 0.0 | 3.0 | 0.00 | 0.02 | 0.18 | 100 | 1011.9 |
| 20260502063754 | 54 | 103 | 0.0 | 3.0 | 0.00 | 0.02 | 0.18 | 100 | 1012.2 |
| 20260502063248 | 54 | 103 | 0.0 | 3.0 | 0.00 | 0.02 | 0.18 | 100 | 1011.9 |
| 20260502062728 | 54 | 103 | 0.0 | 3.0 | 0.00 | 0.02 | 0.18 | 100 | 1012.2 |
| 20260502062214 | 54 | 104 | 0.0 | 3.0 | 0.00 | 0.02 | 0.18 | 100 | 1012.2 |
| 20260502061701 | 54 | 103 | 0.0 | 3.0 | 0.00 | 0.02 | 0.18 | 100 | 1012.5 |
| 20260502061150 | 54 | 103 | 0.0 | 3.0 | 0.00 | 0.02 | 0.18 | 100 | 1012.5 |
| 20260502060637 | 54 | 103 | 0.0 | 3.0 | 0.00 | 0.02 | 0.18 | 100 | 1012.5 |
| 20260502060125 | 54 | 104 | 0.0 | 3.0 | 0.00 | 0.02 | 0.18 | 100 | 1012.9 |
| 20260502055612 | 53 | 104 | 2.0 | 3.0 | 0.00 | 0.02 | 0.18 | 100 | 1012.5 |
| 20260502055100 | 54 | 104 | 1.0 | 3.0 | 0.00 | 0.02 | 0.18 | 100 | 1012.9 |
| 20260502054547 | 53 | 103 | 0.0 | 3.0 | 0.00 | 0.02 | 0.18 | 100 | 1012.9 |
| 20260502054035 | 53 | 103 | 0.0 | 3.0 | 0.00 | 0.02 | 0.18 | 100 | 1012.9 |
| 20260502053523 | 53 | 103 | 1.0 | 3.0 | 0.00 | 0.02 | 0.18 | 100 | 1012.9 |
| 20260502053011 | 53 | 103 | 1.0 | 2.0 | 0.00 | 0.02 | 0.18 | 100 | 1013.2 |
| 20260502052458 | 53 | 103 | 1.0 | 2.0 | 0.00 | 0.02 | 0.18 | 100 | 1012.9 |
| 20260502051946 | 53 | 103 | 0.0 | 1.0 | 0.00 | 0.02 | 0.18 | 100 | 1012.9 |
| 20260502051434 | 53 | 104 | 0.0 | 1.0 | 0.00 | 0.02 | 0.18 | 100 | 1012.9 |
| 20260502050921 | 53 | 103 | 0.0 | 1.0 | 0.00 | 0.02 | 0.18 | 100 | 1012.9 |
| 20260502050408 | 53 | 103 | 0.0 | 1.0 | 0.00 | 0.02 | 0.18 | 100 | 1013.2 |
| 20260502045857 | 53 | 104 | 0.0 | 1.0 | 0.00 | 0.02 | 0.18 | 100 | 1012.9 |
| 20260502045344 | 53 | 103 | 0.0 | 1.0 | 0.00 | 0.02 | 0.18 | 100 | 1013.2 |
| 20260502044832 | 53 | 103 | 0.0 | 1.0 | 0.00 | 0.02 | 0.18 | 100 | 1013.2 |
| 20260502044319 | 53 | 103 | 0.0 | 0.0 | 0.00 | 0.02 | 0.18 | 100 | 1013.5 |
| 20260502043814 | 53 | 104 | 0.0 | 0.0 | 0.00 | 0.02 | 0.18 | 100 | 1012.9 |
| 20260502043253 | 53 | 104 | 0.0 | 0.0 | 0.00 | 0.02 | 0.18 | 100 | 1013.2 |
| 20260502042746 | 52 | 103 | 0.0 | 0.0 | 0.00 | 0.02 | 0.18 | 100 | 1013.2 |
| 20260502042224 | 52 | 103 | 0.0 | 0.0 | 0.00 | 0.02 | 0.18 | 100 | 1013.2 |
| 20260502041718 | 52 | 103 | 0.0 | 0.0 | 0.00 | 0.02 | 0.18 | 100 | 1013.2 |
| 20260502041156 | 52 | 103 | 0.0 | 0.0 | 0.00 | 0.02 | 0.18 | 100 | 1013.5 |
| 20260502040651 | 52 | 103 | 0.0 | 0.0 | 0.00 | 0.02 | 0.18 | 100 | 1013.2 |
| 20260502040129 | 52 | 103 | 0.0 | 0.0 | 0.00 | 0.02 | 0.18 | 100 | 1013.2 |
| 20260502035617 | 52 | 103 | 0.0 | 16.0 | 0.00 | 0.02 | 0.18 | 100 | 1013.5 |
| 20260502035104 | 52 | 103 | 0.0 | 16.0 | 0.00 | 0.02 | 0.18 | 100 | 1013.5 |
| 20260502034558 | 52 | 103 | 0.0 | 16.0 | 0.00 | 0.02 | 0.18 | 100 | 1013.2 |
| 20260502034036 | 52 | 103 | 0.0 | 16.0 | 0.00 | 0.02 | 0.18 | 100 | 1013.5 |
| 20260502033524 | 52 | 103 | 0.0 | 16.0 | 0.00 | 0.02 | 0.18 | 100 | 1013.2 |
| 20260502033012 | 52 | 103 | 0.0 | 16.0 | 0.00 | 0.02 | 0.18 | 100 | 1013.5 |
| 20260502032500 | 52 | 104 | 0.0 | 16.0 | 0.00 | 0.02 | 0.18 | 100 | 1013.5 |
| 20260502031947 | 52 | 104 | 0.0 | 16.0 | 0.00 | 0.02 | 0.18 | 100 | 1013.5 |
| 20260502031441 | 52 | 104 | 0.0 | 16.0 | 0.00 | 0.02 | 0.18 | 100 | 1013.9 |
| 20260502030918 | 52 | 103 | 0.0 | 16.0 | 0.00 | 0.02 | 0.18 | 100 | 1013.5 |
| 20260502030413 | 52 | 103 | 0.0 | 16.0 | 0.00 | 0.02 | 0.18 | 100 | 1013.9 |
| 20260502025851 | 52 | 104 | 0.0 | 16.0 | 0.00 | 0.02 | 0.18 | 100 | 1013.9 |
| 20260502025339 | 52 | 103 | 0.0 | 16.0 | 0.00 | 0.02 | 0.18 | 100 | 1013.9 |
| 20260502024826 | 52 | 103 | 0.0 | 16.0 | 0.00 | 0.02 | 0.18 | 100 | 1014.2 |
| 20260502024315 | 52 | 103 | 0.0 | 16.0 | 0.00 | 0.02 | 0.18 | 100 | 1013.9 |
| 20260502023809 | 52 | 103 | 0.0 | 16.0 | 0.00 | 0.02 | 0.18 | 100 | 1013.9 |
| 20260502023247 | 52 | 103 | 0.0 | 16.0 | 0.00 | 0.02 | 0.18 | 100 | 1013.9 |
| 20260502022735 | 52 | 104 | 0.0 | 16.0 | 0.00 | 0.02 | 0.18 | 100 | 1013.9 |
| 20260502022223 | 52 | 103 | 0.0 | 16.0 | 0.00 | 0.02 | 0.18 | 100 | 1014.2 |